Regional Weather Roundup
Issued by NWS

Home | Current Version | Previous Version | Text Only | Print | Product List | Glossary Off
Versions: 1 2 3 4 5 6 7 8 9 10 11 12 13 14 15 16 17 18 19 20 21 22 23 24 25 26 27 28 29 30 31 32 33 34 35 36 37 38 39 40 41 42 43 44 45 46 47 48 49 50

000
ASUS43 KLOT 292112
RWRIL

ILLINOIS REGIONAL WEATHER ROUNDUP
NATIONAL WEATHER SERVICE CHICAGO/ROMEOVILLE IL
400 PM CDT SAT AUG 29 2015

NOTE: "FAIR" INDICATES FEW OR NO CLOUDS BELOW 12,000 FEET WITH NO
SIGNIFICANT WEATHER AND/OR OBSTRUCTIONS TO VISIBILITY.

* THESE STATIONS ARE NOT UNDER NWS QUALITY CONTROL. THEY ALSO MAY NOT
  REPORT WEATHER SUCH AS PRECIPITATION OR FOG.

ILZ001-002-007-009-015-016-024-292200-
NORTHWEST ILLINOIS

CITY           SKY/WX    TMP DP  RH WIND       PRES   REMARKS
MOLINE         CLOUDY    75  67  76 CALM      29.99S
STERLING*      CLOUDY    73  66  78 CALM      29.99S
SAVANNA*       CLOUDY    72  65  78 NE5       30.01S
$$

ILZ003-004-008-010-011-017-018-292200-
NORTH CENTRAL ILLINOIS

CITY           SKY/WX    TMP DP  RH WIND       PRES   REMARKS
ROCKFORD       CLOUDY    71  64  78 N5        30.02F
FREEPORT*      CLOUDY    70  64  81 NE3       30.03F
ROCHELLE*      CLOUDY    71  66  84 CALM      30.02S
DE KALB*       CLOUDY    71  66  85 NW3       30.02S
PERU*          CLOUDY    75  66  73 W5        30.00S
$$

ILZ005-006-012>014-019>023-292200-
NORTHEAST ILLINOIS

CITY           SKY/WX    TMP DP  RH WIND       PRES   REMARKS
CHICAGO-OHARE  CLOUDY    70  66  87 NW6       30.01R
CHICAGO-MIDWAY CLOUDY    74  64  71 NW8       30.00R
AURORA         CLOUDY    71  68  90 NW7       30.01S
LANSING*       CLOUDY    74  67  79 S5        30.00F
JOLIET*        CLOUDY    76  69  79 SW3       29.99S
WAUKEGAN       CLOUDY    66  64  93 CALM      30.01S FOG
DUPAGE AIRPORT LGT RAIN  70  66  87 NW3       30.00F
KANKAKEE*      CLOUDY    75  70  82 S6        30.01F
WHEELING       CLOUDY    70  64  81 W5        30.02S
MORRIS*        CLOUDY    76  69  79 S6        29.98S
ROMEOVILLE*    CLOUDY    73  66  81 W3        30.00S
NORTHERLY ISL    N/A     68  63  84 N3          N/A
$$

LMZ740>746-292200-
SOUTHERN LAKE MICHIGAN

STATION/POSITION SKY/WX   TEMP    WIND        PRES    VSBY  WAVE
                          AIR SEA DIR/SP/G                  HT/PER
                          (F)     (DEG/KT/KT) (MB)    (MI)  (FT/S)
SOUTHERN BUOY              67 68  110/ 12/ 14 1016.4F         2/ 4
WILMETTE HARBOR            58 55  140/  2/  6   N/A           2/ 4
HARRISON CRIB              71     180/  6/  6   N/A
BURNHAM HARBOR             68      CALM  /  6   N/A
BURNS HARBOR               74     190/ 10/ 12 1016.6F
MICHIGAN CITY              72     150/  7/  9   N/A
MICHIGAN CITY 6N           72 71  150/  8/ 10   N/A           1
ST. JOSEPH                 70 70  170/  8/ 10   N/A           1
$$

ILZ025>027-034>036-040-047-049-050-058-095>099-292200-
WEST-CENTRAL ILLINOIS

CITY           SKY/WX    TMP DP  RH WIND       PRES   REMARKS
QUINCY         CLOUDY    79  68  69 W5        29.98F HX  81
GALESBURG*     CLOUDY    76  67  74 CALM      29.99S
MACOMB*        CLOUDY    77  67  70 CALM      30.01S
JACKSONVILLE*  FAIR      83  70  64 S9        29.98S HX  88
PITTSFIELD*    PTSUNNY   83  67  59 CALM      29.99F HX  85
$$

ILZ028>032-037-038-041>044-048-051>054-059>061-292200-
CENTRAL ILLINOIS

CITY           SKY/WX    TMP DP  RH WIND       PRES   REMARKS
PONTIAC        CLOUDY    78  69  73 S7        30.00S HX  80
BLOOMINGTON    FAIR      77  69  76 S8        30.01F
DECATUR        FAIR      81  67  62 S10       30.00F HX  83
PEORIA         PTSUNNY   83  66  56 S7        29.98F HX  85
LACON*         FAIR      77  66  68 CALM      29.98S
LINCOLN*       CLOUDY    78  67  68 S5        29.99F HX  80
SPRINGFIELD    PTSUNNY   79  68  69 S8        29.99F HX  81
TAYLORVILLE    FAIR      79  66  65 S9        30.00S HX  81
$$

ILZ033-039-045-046-055>057-062-063-292200-
EAST-CENTRAL ILLINOIS

CITY           SKY/WX    TMP DP  RH WIND       PRES   REMARKS
CHAMPAIGN      PTSUNNY   81  67  62 S9        30.01F HX  83
RANTOUL*       CLOUDY    81  69  66 S7        30.00F HAZE    HX  83
MATTOON        FAIR      79  64  60 SW10      30.02S HX  81
PARIS*         FAIR      79  69  71 S9        30.03F HX  81
$$

ILZ079-100>102-292200-
SOUTHWEST ILLINOIS

CITY           SKY/WX    TMP DP  RH WIND       PRES   REMARKS
BELLEVILLE     FAIR      79  69  70 SE5       29.99F HX  82
CAHOKIA*       FAIR      80  66  62 S5        29.99F HX  82
SPARTA*        FAIR      74  65  72 S8        30.03S
$$

ILZ064>066-069>071-074>076-080>082-084>086-088>090-092>094-292200-
SOUTH-CENTRAL ILLINOIS

CITY           SKY/WX    TMP DP  RH WIND       PRES   REMARKS
CARBONDALE     FAIR      78  66  66 S6        30.02F HX  80
CAIRO*         FAIR      84  70  63 SW6       30.01F HX  88
EFFINGHAM*     FAIR      78  62  58 S5        30.03F HX  80
MARION         CLOUDY    82  68  61 SW9       30.03F HX  85
MT. VERNON     PTSUNNY   75  66  73 SW6       30.04F
SALEM*         FAIR      80  68  68 S7        30.02F HX  82
METROPOLIS*    FAIR      87  71  57 SW7       30.02F HX  92
$$

ILZ067-068-072-073-078-083-087-091-292200-
SOUTHEAST ILLINOIS

CITY           SKY/WX    TMP DP  RH WIND       PRES   REMARKS
LAWRENCEVILLE  FAIR      83  62  49 SW10      30.03F HX  84
FLORA*         FAIR      79  67  66 SW6       30.03F HX  81
FAIRFIELD*     FAIR      78  73  83 CALM      30.02F HX  81
HARRISBURG*    FAIR      85  69  57 W7        30.02F HX  89
ROBINSON*      FAIR      82  67  60 SW9       30.03F HX  84
CARMI*         FAIR      82  70  66 SW6       30.02S HX  86
$$

ABBREVIATIONS USED IN REMARKS
   TC - TEMPERATURE IN CELSIUS
  WCI - WIND CHILL INDEX
   HX - HEAT INDEX
  VSB - VISIBILITY
$$



USA.gov is the U.S. government's official web portal to all federal, state and local government web resources and services.